WT9M-8 Weather Reports


Display with metric or nautical units.
time (UTC)temp
F
wind
direction
speed
MPH
gust
MPH
rain 1hr
in
rain 24hr
in
rain mn
in
humidity
%
barometer
mb
20260507024034 32 96 1.0 2.0 0.00 0.00 0.00 71 1015.5
20260507023031 32 85 2.0 3.0 0.00 0.00 0.00 72 1015.5
20260507022027 33 88 2.0 3.0 0.00 0.00 0.00 69 1015.5
20260507021026 34 87 2.0 3.0 0.00 0.00 0.00 67 1015.3
20260507020021 36 90 2.0 2.0 0.00 0.00 0.00 62 1015.2
20260507015017 37 89 1.0 2.0 0.00 0.00 0.00 58 1015.1
20260507014034 39 8 0.0 2.0 0.00 0.00 0.00 56 1015.1
20260507013111 40 228 0.0 1.0 0.00 0.00 0.00 55 1015.0
20260507012048 42 245 1.0 4.0 0.00 0.00 0.00 53 1015.1
20260507010101 43 255 2.0 3.0 0.00 0.00 0.00 53 1015.1
20260507005058 44 261 3.0 7.0 0.00 0.00 0.00 52 1015.1
20260507004035 44 271 3.0 7.0 0.00 0.00 0.00 52 1015.1
20260507003031 44 266 3.0 6.0 0.00 0.00 0.00 51 1015.0
20260507002027 44 267 5.0 14.0 0.00 0.00 0.00 51 1015.0
20260507001024 45 275 3.0 8.0 0.00 0.00 0.00 51 1014.9
20260507000022 45 265 4.0 8.0 0.00 0.00 0.00 50 1015.0
20260506235018 45 258 4.0 13.0 0.00 0.00 0.00 50 1014.9
20260506234034 46 256 3.0 9.0 0.00 0.00 0.00 50 1014.9
20260506233030 46 248 2.0 4.0 0.00 0.00 0.00 50 1014.9
20260506232047 46 248 4.0 8.0 0.00 0.00 0.00 50 1014.9
20260506231024 47 272 3.0 8.0 0.00 0.00 0.00 50 1014.9
20260506230020 47 252 4.0 8.0 0.00 0.00 0.00 50 1015.0
20260506225117 47 270 4.0 9.0 0.00 0.00 0.00 49 1015.0
20260506224034 47 277 4.0 9.0 0.00 0.00 0.00 50 1015.0
20260506223031 47 266 3.0 7.0 0.00 0.00 0.00 50 1015.0
20260506222028 47 255 5.0 10.0 0.00 0.00 0.00 49 1015.1
20260506221024 47 259 5.0 13.0 0.00 0.00 0.00 48 1015.0
20260506220021 48 280 4.0 8.0 0.00 0.00 0.00 49 1014.9
20260506215017 48 261 5.0 13.0 0.00 0.00 0.00 48 1014.9
20260506214034 49 260 6.0 11.0 0.00 0.00 0.00 49 1014.8
20260506213030 47 271 6.0 10.0 0.00 0.00 0.00 48 1014.8
20260506212027 47 265 5.0 11.0 0.00 0.00 0.00 49 1014.8
20260506211044 47 258 5.0 9.0 0.00 0.00 0.00 49 1014.9
20260506210020 48 264 4.0 9.0 0.00 0.00 0.00 48 1014.8
20260506205017 48 267 4.0 11.0 0.00 0.00 0.00 49 1014.9
20260506204034 49 241 6.0 14.0 0.00 0.00 0.00 48 1014.8
20260506203032 48 242 5.0 9.0 0.00 0.00 0.00 49 1014.8
20260506202027 49 250 6.0 11.0 0.00 0.00 0.00 48 1014.9
20260506201043 49 237 6.0 13.0 0.00 0.00 0.00 48 1015.1
20260506200200 49 260 6.0 23.0 0.00 0.00 0.00 47 1015.0
20260506195036 49 265 5.0 10.0 0.00 0.00 0.00 47 1015.0
20260506194033 49 271 4.0 13.0 0.00 0.00 0.00 48 1014.9
20260506193109 49 254 4.0 7.0 0.00 0.00 0.00 48 1014.9
20260506192046 50 269 5.0 10.0 0.00 0.00 0.00 48 1014.8
20260506191023 50 247 4.0 11.0 0.00 0.00 0.00 46 1014.9
20260506190020 51 255 4.0 11.0 0.00 0.00 0.00 46 1015.0
20260506185017 51 241 3.0 7.0 0.00 0.00 0.00 47 1014.9
20260506184032 52 289 4.0 9.0 0.00 0.00 0.00 45 1014.8
20260506183029 53 276 5.0 11.0 0.00 0.00 0.00 45 1014.7
20260506182046 53 261 4.0 9.0 0.00 0.00 0.00 44 1014.7
20260506181023 54 259 4.0 10.0 0.00 0.00 0.00 45 1014.8
20260506180019 55 250 2.0 6.0 0.00 0.00 0.00 44 1014.8
20260506175016 54 246 5.0 10.0 0.00 0.00 0.00 44 1014.9
20260506174032 56 260 5.0 10.0 0.00 0.00 0.00 42 1015.0
20260506173029 57 273 4.0 11.0 0.00 0.00 0.00 45 1014.9
20260506172046 56 238 5.0 10.0 0.00 0.00 0.00 45 1015.0
20260506171022 55 276 4.0 10.0 0.00 0.00 0.00 44 1014.9
20260506170040 56 237 4.0 11.0 0.00 0.00 0.00 48 1014.7
20260506165016 54 265 4.0 13.0 0.00 0.00 0.00 49 1014.9
20260506164032 54 225 4.0 14.0 0.00 0.00 0.00 48 1014.9
20260506163029 54 254 5.0 9.0 0.00 0.00 0.00 46 1014.8
20260506162047 53 267 4.0 11.0 0.00 0.00 0.00 47 1014.8
20260506161022 52 254 4.0 9.0 0.00 0.00 0.00 49 1014.8
20260506160019 52 255 3.0 8.0 0.00 0.00 0.00 48 1014.9
20260506155037 53 256 5.0 11.0 0.00 0.00 0.00 49 1014.8
20260506154032 52 265 4.0 8.0 0.00 0.00 0.00 46 1014.9
20260506153028 54 268 4.0 8.0 0.00 0.00 0.00 49 1014.8
20260506152025 52 243 4.0 8.0 0.00 0.00 0.00 49 1014.8
20260506151022 51 280 4.0 9.0 0.00 0.00 0.00 50 1014.9
20260506150018 52 272 5.0 10.0 0.00 0.00 0.00 51 1014.8
20260506145035 51 266 5.0 9.0 0.00 0.00 0.00 50 1014.9
20260506143027 50 261 5.0 10.0 0.00 0.00 0.00 53 1014.6
20260506142024 50 265 4.0 7.0 0.00 0.00 0.00 54 1014.5
20260506141021 50 260 4.0 8.0 0.00 0.00 0.00 57 1014.5
20260506140039 50 252 4.0 8.0 0.00 0.00 0.00 60 1014.5
20260506135056 49 255 3.0 7.0 0.00 0.00 0.00 63 1014.4
20260506134031 48 261 3.0 8.0 0.00 0.00 0.00 66 1014.3
20260506133027 46 275 4.0 7.0 0.00 0.00 0.00 68 1014.3
20260506132024 46 263 3.0 7.0 0.00 0.00 0.00 72 1014.1
20260506131022 45 245 3.0 6.0 0.00 0.00 0.00 77 1014.1
20260506130017 44 276 1.0 4.0 0.00 0.00 0.00 81 1014.0
20260506125034 41 207 1.0 2.0 0.00 0.00 0.00 85 1014.1
20260506124113 39 0.0 0.0 0.00 0.00 0.00 85 1013.7
20260506123047 36 86 1.0 3.0 0.00 0.00 0.00 86 1013.7
20260506122046 33 79 1.0 2.0 0.00 0.00 0.00 87 1013.9
20260506121021 30 83 2.0 2.0 0.00 0.00 0.00 88 1013.9
20260506120017 27 82 1.0 3.0 0.00 0.00 0.00 86 1013.8
20260506115054 26 0.0 0.0 0.00 0.00 0.00 85 1013.7
20260506114031 26 0.0 0.0 0.00 0.00 0.00 85 1013.5
20260506113047 26 0.0 0.0 0.00 0.00 0.00 85 1013.2
20260506112024 26 0.0 0.0 0.00 0.00 0.00 85 1012.9
20260506111020 26 0.0 0.0 0.00 0.00 0.00 84 1012.9
20260506110017 26 0.0 0.0 0.00 0.00 0.00 84 1012.9
20260506105034 26 0.0 0.0 0.00 0.00 0.00 84 1013.0
20260506104030 26 0.0 0.0 0.00 0.00 0.00 84 1012.9
20260506103027 26 0.0 0.0 0.00 0.00 0.00 84 1012.9
20260506102024 26 0.0 0.0 0.00 0.00 0.00 84 1013.0
20260506101020 26 0.0 0.0 0.00 0.00 0.00 84 1012.7
20260506100017 26 0.0 0.0 0.00 0.00 0.00 83 1012.5
20260506095034 26 0.0 0.0 0.00 0.00 0.00 83 1012.5
20260506094032 26 0.0 0.0 0.00 0.00 0.00 83 1012.5
20260506093027 26 0.0 0.0 0.00 0.00 0.00 83 1012.4
20260506092024 26 0.0 0.0 0.00 0.00 0.00 83 1012.4
20260506091020 26 0.0 0.0 0.00 0.00 0.00 83 1012.5
20260506090018 27 0.0 0.0 0.00 0.00 0.00 82 1012.3
20260506085034 27 0.0 0.0 0.00 0.00 0.00 82 1012.2
20260506084030 27 0.0 0.0 0.00 0.00 0.00 82 1012.2
20260506083049 27 0.0 0.0 0.00 0.00 0.00 83 1012.1
20260506082025 28 0.0 0.0 0.00 0.00 0.00 82 1012.2
20260506081020 28 0.0 0.0 0.00 0.00 0.00 83 1012.1
20260506073026 28 0.0 0.0 0.00 0.00 0.00 80 1011.6
20260506072024 29 0.0 0.0 0.00 0.00 0.00 80 1011.6
20260506071019 29 0.0 0.0 0.00 0.00 0.00 80 1011.4
20260506062022 30 0.0 0.0 0.00 0.00 0.00 79 1011.8
20260506061020 30 0.0 0.0 0.00 0.00 0.00 78 1011.8
20260506051018 32 0.0 0.0 0.00 0.00 0.00 75 1011.3
20260506045032 33 0.0 0.0 0.00 0.00 0.00 74 1011.3
20260506044048 34 0.0 0.0 0.00 0.00 0.00 75 1011.3
20260506043025 34 0.0 0.0 0.00 0.00 0.00 75 1011.4
20260506042024 34 0.0 0.0 0.00 0.00 0.00 74 1011.3
20260506041018 34 87 0.0 1.0 0.00 0.00 0.00 74 1011.2
20260506040035 34 79 1.0 2.0 0.00 0.00 0.00 74 1011.3
20260506035032 34 91 0.0 2.0 0.00 0.00 0.00 72 1011.1
20260506034030 35 91 1.0 1.0 0.00 0.00 0.00 72 1011.1
20260506033026 35 90 1.0 2.0 0.00 0.00 0.00 73 1011.0
20260506032022 36 88 1.0 2.0 0.00 0.00 0.00 72 1011.1
20260506031018 36 83 2.0 2.0 0.00 0.00 0.00 72 1011.0
20260506030035 36 80 2.0 2.0 0.00 0.00 0.00 71 1011.0
20260506025032 37 94 1.0 2.0 0.00 0.00 0.00 69 1010.9